CW0845 Weather Reports


Display with metric or nautical units.
time (UTC)temp
F
wind
direction
speed
MPH
gust
MPH
rain 1hr
in
rain 24hr
in
rain mn
in
humidity
%
barometer
mb
20210924072006 73 161 7.0 13.0 0.00 0.00 0.00 83 970.5
20210924071508 73 172 6.0 13.0 0.00 0.00 0.00 83 970.5
20210924071006 73 183 3.0 12.0 0.00 0.00 0.00 83 970.7
20210924070504 73 194 6.0 12.0 0.00 0.00 0.00 83 970.8
20210924070006 73 129 6.0 12.0 0.00 0.00 0.00 83 970.9
20210924065504 74 102 2.0 10.0 0.00 0.00 0.00 83 970.9
20210924065005 74 159 3.0 13.0 0.00 0.00 0.00 83 971.0
20210924064504 73 117 6.0 13.0 0.00 0.00 0.00 83 971.0
20210924064005 74 154 5.0 13.0 0.00 0.00 0.00 83 970.9
20210924063504 74 121 5.0 12.0 0.00 0.00 0.00 82 971.0
20210924063006 74 187 3.0 10.0 0.00 0.00 0.00 82 970.9
20210924062504 74 182 5.0 12.0 0.00 0.00 0.00 82 971.0
20210924062006 74 150 3.0 13.0 0.00 0.00 0.00 82 970.9
20210924061504 74 172 2.0 13.0 0.00 0.00 0.00 82 970.9
20210924061006 74 162 6.0 13.0 0.00 0.00 0.00 83 971.0
20210924060503 74 143 3.0 14.0 0.00 0.00 0.00 82 971.0
20210924060005 74 153 5.0 14.0 0.00 0.00 0.00 83 971.1
20210924055504 74 158 5.0 10.0 0.00 0.00 0.00 83 971.3
20210924055005 74 169 4.0 12.0 0.00 0.00 0.00 83 971.3
20210924054504 74 168 6.0 13.0 0.00 0.00 0.00 83 971.4
20210924054006 74 146 5.0 13.0 0.00 0.00 0.00 83 971.5
20210924053504 73 147 5.0 10.0 0.00 0.00 0.00 83 971.5
20210924053006 73 198 5.0 10.0 0.00 0.00 0.00 84 971.5
20210924052504 73 139 6.0 13.0 0.00 0.00 0.00 84 971.6
20210924052005 74 159 5.0 13.0 0.00 0.00 0.00 84 971.7
20210924051505 73 160 3.0 13.0 0.00 0.00 0.00 84 971.7
20210924051005 73 157 3.0 10.0 0.00 0.00 0.00 84 971.7
20210924050504 73 200 3.0 10.0 0.00 0.00 0.00 84 971.7
20210924050006 73 160 3.0 13.0 0.00 0.00 0.00 84 971.7
20210924045503 73 138 5.0 13.0 0.00 0.00 0.00 85 971.7
20210924045005 73 157 5.0 13.0 0.00 0.00 0.00 85 971.7
20210924044504 73 174 4.0 9.0 0.00 0.00 0.00 85 971.6
20210924044005 73 136 3.0 12.0 0.00 0.00 0.00 85 971.6
20210924043504 73 171 7.0 13.0 0.00 0.00 0.00 85 971.7
20210924043005 73 139 3.0 13.0 0.00 0.00 0.00 85 971.7
20210924042503 73 130 5.0 12.0 0.00 0.00 0.00 85 971.7
20210924042005 73 175 7.0 12.0 0.00 0.00 0.00 85 971.8
20210924041504 73 120 4.0 12.0 0.00 0.00 0.00 85 971.8
20210924041005 73 177 6.0 12.0 0.00 0.00 0.00 85 971.7
20210924040504 73 155 5.0 9.0 0.00 0.00 0.00 85 971.8
20210924040006 73 168 3.0 12.0 0.00 0.00 0.00 85 971.7
20210924035504 73 161 5.0 12.0 0.00 0.00 0.00 85 971.7
20210924035006 73 162 3.0 14.0 0.00 0.00 0.00 85 971.8
20210924034504 73 147 6.0 14.0 0.00 0.00 0.00 85 971.8
20210924034006 73 169 6.0 10.0 0.00 0.00 0.00 85 972.0
20210924033504 73 210 5.0 10.0 0.00 0.00 0.00 85 971.9
20210924033006 73 148 5.0 10.0 0.00 0.00 0.00 85 971.9
20210924032504 73 140 4.0 13.0 0.00 0.00 0.00 85 971.9
20210924032006 73 164 7.0 14.0 0.00 0.00 0.00 85 971.9
20210924031504 73 166 6.0 14.0 0.00 0.00 0.00 85 971.9
20210924031006 73 185 5.0 12.0 0.00 0.00 0.00 85 971.9
20210924030504 73 166 5.0 12.0 0.00 0.00 0.00 85 971.9
20210924030005 73 140 4.0 10.0 0.00 0.00 0.00 85 971.9
20210924025502 73 141 6.0 14.0 0.00 0.00 0.00 85 971.9
20210924025005 73 162 7.0 14.0 0.00 0.00 0.00 85 971.9
20210924024503 73 178 6.0 13.0 0.00 0.00 0.00 85 972.1
20210924024005 73 157 4.0 13.0 0.00 0.00 0.00 85 972.1
20210924023503 73 99 3.0 13.0 0.00 0.00 0.00 84 972.1
20210924023005 73 146 5.0 13.0 0.00 0.00 0.00 84 972.1
20210924022503 73 181 6.0 12.0 0.00 0.00 0.00 84 972.1
20210924022004 73 180 4.0 12.0 0.00 0.00 0.00 84 972.2
20210924021503 73 154 2.0 13.0 0.00 0.00 0.00 84 972.1
20210924021004 73 160 7.0 13.0 0.00 0.00 0.00 84 972.2
20210924020502 73 136 7.0 14.0 0.00 0.00 0.00 84 972.2
20210924020005 73 161 6.0 14.0 0.00 0.00 0.00 84 972.2
20210924015503 73 130 5.0 17.0 0.00 0.00 0.00 84 972.2
20210924015004 73 171 8.0 17.0 0.00 0.00 0.00 84 972.2
20210924014503 73 158 7.0 17.0 0.00 0.00 0.00 84 972.2
20210924014004 73 154 6.0 13.0 0.00 0.00 0.00 84 972.2
20210924013503 73 154 6.0 13.0 0.00 0.00 0.00 84 972.4
20210924013005 73 192 6.0 13.0 0.00 0.00 0.00 84 972.4
20210924012503 73 148 7.0 13.0 0.00 0.00 0.00 84 972.4
20210924012005 73 169 6.0 13.0 0.00 0.00 0.00 84 972.4
20210924011504 73 183 4.0 12.0 0.00 0.00 0.00 84 972.3
20210924011005 73 191 5.0 13.0 0.00 0.00 0.00 84 972.2
20210924010502 73 132 5.0 15.0 0.00 0.00 0.00 84 972.0
20210924010008 73 155 6.0 15.0 0.00 0.00 0.00 83 972.1
20210924005503 73 166 3.0 15.0 0.00 0.00 0.00 83 972.1
20210924005004 73 146 6.0 15.0 0.00 0.00 0.00 83 972.0
20210924004503 73 119 2.0 12.0 0.00 0.00 0.00 83 972.1
20210924004005 73 144 6.0 10.0 0.00 0.00 0.00 83 972.1
20210924003504 73 191 4.0 10.0 0.00 0.00 0.00 83 972.1
20210924003005 73 113 5.0 13.0 0.00 0.02 0.00 82 972.3
20210924002503 73 211 5.0 13.0 0.00 0.03 0.00 82 972.2
20210924002004 73 160 2.0 10.0 0.00 0.03 0.00 82 972.2
20210924001503 73 107 6.0 12.0 0.00 0.03 0.00 82 972.3
20210924001005 73 131 5.0 12.0 0.00 0.03 0.00 82 972.3
20210924000502 73 198 2.0 8.0 0.00 0.03 0.00 81 972.3
20210924000005 74 158 5.0 10.0 0.00 0.03 0.00 81 972.4
20210923235503 74 154 3.0 12.0 0.00 0.03 0.00 81 972.4
20210923235005 74 110 5.0 12.0 0.00 0.03 0.00 81 972.5
20210923234503 74 190 6.0 12.0 0.00 0.03 0.00 81 972.5
20210923234005 74 152 5.0 13.0 0.00 0.03 0.00 81 972.6
20210923233503 74 161 6.0 13.0 0.00 0.04 0.00 80 972.5
20210923233004 74 148 2.0 13.0 0.00 0.04 0.00 80 972.4
20210923232503 74 160 5.0 13.0 0.00 0.04 0.00 80 972.4
20210923232004 74 154 5.0 13.0 0.00 0.04 0.00 80 972.4
20210923231503 74 152 5.0 13.0 0.00 0.04 0.00 79 972.4
20210923231004 74 175 6.0 12.0 0.00 0.04 0.00 79 972.4
20210923230502 74 138 5.0 14.0 0.00 0.04 0.00 79 972.4
20210923230004 74 152 7.0 14.0 0.00 0.04 0.00 78 972.2
20210923225503 75 163 6.0 14.0 0.00 0.04 0.00 78 972.2
20210923225004 75 134 6.0 14.0 0.00 0.07 0.00 78 972.4
20210923224502 75 163 6.0 14.0 0.00 0.07 0.00 77 972.4
20210923224004 75 187 5.0 14.0 0.00 0.08 0.00 77 972.4
20210923223503 75 161 4.0 10.0 0.00 0.09 0.00 76 972.3
20210923223005 75 170 4.0 15.0 0.00 0.10 0.00 76 972.3
20210923222502 75 148 7.0 15.0 0.00 0.10 0.00 76 972.2
20210923222004 75 166 3.0 14.0 0.00 0.10 0.00 75 972.1
20210923221504 75 123 6.0 12.0 0.00 0.10 0.00 75 972.1
20210923221004 75 153 7.0 12.0 0.00 0.10 0.00 75 972.1
20210923220503 75 137 3.0 15.0 0.00 0.10 0.00 74 972.0
20210923220004 75 152 6.0 15.0 0.00 0.10 0.00 74 972.1
20210923215502 75 165 6.0 15.0 0.00 0.10 0.00 74 972.0
20210923215004 76 184 7.0 15.0 0.00 0.10 0.00 73 971.9
20210923214503 76 151 3.0 13.0 0.00 0.10 0.00 73 971.8
20210923214005 76 169 6.0 13.0 0.00 0.10 0.00 72 971.9
20210923213503 75 186 4.0 13.0 0.00 0.10 0.00 72 972.0
20210923213004 76 166 5.0 18.0 0.00 0.10 0.00 72 972.0
20210923212502 75 198 8.0 18.0 0.00 0.10 0.00 71 972.0
20210923212004 76 165 7.0 18.0 0.00 0.10 0.00 71 972.0
20210923211503 76 154 6.0 13.0 0.00 0.10 0.00 71 972.0
20210923211004 76 110 7.0 17.0 0.00 0.10 0.00 70 972.0
20210923210503 76 204 6.0 18.0 0.00 0.10 0.00 70 971.9
20210923210004 76 175 10.0 18.0 0.00 0.10 0.00 69 971.9
20210923205503 76 166 8.0 20.0 0.00 0.10 0.00 68 971.9
20210923205005 76 178 11.0 20.0 0.00 0.10 0.00 67 971.8
20210923204503 76 168 9.0 16.0 0.00 0.10 0.00 67 971.7
20210923204004 77 189 8.0 17.0 0.00 0.10 0.00 66 971.5
20210923203503 77 118 8.0 17.0 0.00 0.10 0.00 65 971.5
20210923203005 77 183 9.0 17.0 0.00 0.10 0.00 64 971.5
20210923202503 77 153 9.0 16.0 0.00 0.10 0.00 64 971.6
20210923202005 77 157 6.0 15.0 0.00 0.10 0.00 64 971.6
20210923201503 78 157 9.0 15.0 0.00 0.10 0.00 62 971.6
20210923201004 78 145 5.0 17.0 0.00 0.10 0.00 61 971.6
20210923200503 80 143 7.0 17.0 0.00 0.10 0.00 59 971.6
20210923200005 79 168 5.0 15.0 0.00 0.10 0.00 59 971.5
20210923195503 79 178 6.0 15.0 0.00 0.10 0.00 59 971.6
20210923195004 79 173 9.0 20.0 0.00 0.10 0.00 58 971.8
20210923194502 79 206 7.0 20.0 0.00 0.10 0.00 58 971.8
20210923194004 79 154 7.0 14.0 0.00 0.10 0.00 59 971.8
20210923193503 79 200 5.0 17.0 0.00 0.10 0.00 59 971.7
20210923193005 79 161 9.0 17.0 0.00 0.10 0.00 58 971.7
20210923192503 79 178 9.0 17.0 0.00 0.10 0.00 60 971.8
20210923192004 79 199 10.0 18.0 0.00 0.10 0.00 61 971.9
20210923191503 78 167 9.0 18.0 0.00 0.10 0.00 61 971.9
20210923191004 79 228 9.0 15.0 0.00 0.10 0.00 61 972.0
20210923190503 80 186 8.0 18.0 0.00 0.10 0.00 60 972.0
20210923190005 80 157 10.0 18.0 0.00 0.10 0.00 60 972.1
20210923185503 80 173 3.0 20.0 0.00 0.10 0.00 60 972.2
20210923185005 80 187 8.0 20.0 0.00 0.10 0.00 59 972.2
20210923184503 80 148 11.0 17.0 0.00 0.10 0.00 60 972.3
20210923184004 80 159 6.0 18.0 0.00 0.10 0.00 60 972.2
20210923183503 80 149 7.0 18.0 0.00 0.10 0.00 60 972.3
20210923183004 80 154 7.0 18.0 0.00 0.10 0.00 61 972.4
20210923182503 79 167 7.0 17.0 0.00 0.10 0.00 62 972.4
20210923182005 80 175 6.0 17.0 0.00 0.10 0.00 62 972.4
20210923181503 80 168 7.0 17.0 0.00 0.10 0.00 60 972.4
20210923181005 81 162 7.0 15.0 0.00 0.10 0.00 58 972.4
20210923180503 82 138 5.0 14.0 0.00 0.10 0.00 59 972.2
20210923180004 81 166 4.0 17.0 0.00 0.10 0.00 60 972.2
20210923175503 81 175 6.0 17.0 0.00 0.10 0.00 60 972.3
20210923175005 80 187 7.0 17.0 0.00 0.10 0.00 60 972.3
20210923174503 81 166 10.0 17.0 0.00 0.10 0.00 61 972.2
20210923174004 80 173 5.0 17.0 0.00 0.10 0.00 62 972.2
20210923173503 79 153 9.0 20.0 0.00 0.10 0.00 63 972.3
20210923173005 80 168 8.0 20.0 0.00 0.10 0.00 61 972.3
20210923172503 80 195 9.0 20.0 0.00 0.10 0.00 61 972.3
20210923172005 80 177 7.0 22.0 0.00 0.10 0.00 60 972.3
20210923171503 80 191 10.0 22.0 0.00 0.10 0.00 60 972.4
20210923171005 80 189 9.0 22.0 0.00 0.10 0.00 60 972.5
20210923170503 81 180 9.0 20.0 0.00 0.10 0.00 60 972.6
20210923170005 80 176 10.0 20.0 0.00 0.10 0.00 60 972.6
20210923165503 81 169 11.0 20.0 0.00 0.10 0.00 61 972.7
20210923165005 81 167 6.0 16.0 0.00 0.10 0.00 62 972.7
20210923164504 80 204 9.0 17.0 0.00 0.10 0.00 62 972.8
20210923164005 80 152 9.0 17.0 0.00 0.10 0.00 62 972.8
20210923163503 80 148 7.0 18.0 0.00 0.10 0.00 63 972.8
20210923163004 80 184 10.0 18.0 0.00 0.10 0.00 63 972.9
20210923162503 80 162 8.0 15.0 0.00 0.10 0.00 64 972.9
20210923162004 80 144 6.0 13.0 0.00 0.10 0.00 65 972.9
20210923161504 79 142 6.0 15.0 0.00 0.10 0.00 66 972.9
20210923161005 78 152 7.0 15.0 0.00 0.10 0.00 65 973.0
20210923160503 79 163 9.0 18.0 0.00 0.10 0.00 65 973.1
20210923160005 79 158 8.0 18.0 0.00 0.10 0.00 65 973.1
20210923155504 79 207 9.0 17.0 0.00 0.10 0.00 66 973.1
20210923155004 79 203 8.0 17.0 0.00 0.10 0.00 67 973.1
20210923154503 79 195 9.0 13.0 0.00 0.10 0.00 68 973.1
20210923154004 78 171 3.0 14.0 0.00 0.10 0.00 71 973.1
20210923153503 78 196 7.0 14.0 0.00 0.10 0.00 71 972.9
20210923153004 78 186 7.0 14.0 0.00 0.10 0.00 72 973.1
20210923152503 77 114 3.0 14.0 0.00 0.10 0.00 74 973.0
20210923152004 76 189 8.0 14.0 0.00 0.10 0.00 74 973.1
20210923151503 76 185 7.0 16.0 0.00 0.10 0.00 75 973.1
20210923151004 76 150 6.0 16.0 0.00 0.10 0.00 76 973.1
20210923150503 76 172 9.0 14.0 0.00 0.10 0.00 77 973.2
20210923150005 76 155 4.0 12.0 0.00 0.10 0.00 78 973.2
20210923145503 76 150 6.0 13.0 0.00 0.10 0.00 79 973.2
20210923145004 76 170 6.0 13.0 0.00 0.10 0.00 78 973.2
20210923144504 76 141 4.0 13.0 0.00 0.10 0.00 78 973.3
20210923144005 76 170 6.0 13.0 0.00 0.10 0.00 79 973.3
20210923143503 76 176 5.0 10.0 0.00 0.12 0.00 80 973.3
20210923143005 76 192 4.0 12.0 0.00 0.12 0.00 80 973.3
20210923142503 76 151 2.0 12.0 0.00 0.12 0.00 80 973.3
20210923142005 75 154 7.0 12.0 0.00 0.12 0.00 80 973.3
20210923141502 76 179 7.0 12.0 0.00 0.12 0.00 81 973.3
20210923141005 75 223 1.0 10.0 0.00 0.12 0.00 82 973.2
20210923140503 75 182 5.0 12.0 0.00 0.12 0.00 83 973.2
20210923140004 75 148 2.0 12.0 0.00 0.12 0.00 83 973.3
20210923135503 74 108 1.0 9.0 0.00 0.12 0.00 84 973.2
20210923135004 74 116 2.0 10.0 0.00 0.12 0.00 84 973.2
20210923134503 74 178 4.0 13.0 0.00 0.12 0.00 84 973.3
20210923134005 74 201 6.0 13.0 0.00 0.12 0.00 85 973.3
20210923133504 73 188 4.0 12.0 0.00 0.12 0.00 85 973.3
20210923133006 73 174 5.0 13.0 0.00 0.12 0.00 85 973.4
20210923132503 73 148 7.0 14.0 0.00 0.12 0.00 86 973.4
20210923132005 73 142 5.0 14.0 0.00 0.12 0.00 86 973.3
20210923131503 73 179 5.0 10.0 0.00 0.12 0.00 87 973.4
20210923131004 73 190 6.0 12.0 0.00 0.12 0.00 88 973.4
20210923130503 73 183 4.0 12.0 0.00 0.12 0.00 88 973.4
20210923130005 73 182 7.0 12.0 0.00 0.13 0.00 88 973.3
20210923125503 73 162 2.0 8.0 0.00 0.13 0.00 89 973.2
20210923125004 73 89 0.0 8.0 0.00 0.13 0.00 89 973.3
20210923124503 73 201 3.0 8.0 0.00 0.13 0.00 90 973.2
20210923124004 72 159 3.0 10.0 0.00 0.13 0.00 90 973.2
20210923123503 72 164 1.0 10.0 0.00 0.13 0.00 90 973.2
20210923123005 72 146 2.0 9.0 0.00 0.13 0.00 90 973.2
20210923122503 72 146 3.0 9.0 0.00 0.13 0.00 90 973.2
20210923122004 72 177 3.0 9.0 0.00 0.13 0.00 90 973.1
20210923121503 72 144 3.0 9.0 0.00 0.13 0.00 90 973.1
20210923121005 71 203 3.0 9.0 0.00 0.13 0.00 90 973.1
20210923120503 71 174 1.0 8.0 0.00 0.13 0.00 90 973.2
20210923120004 71 185 5.0 9.0 0.00 0.13 0.00 90 973.2
20210923115505 71 136 2.0 9.0 0.00 0.13 0.00 90 973.1
20210923115004 71 143 4.0 9.0 0.00 0.13 0.00 90 973.2
20210923114503 71 151 1.0 9.0 0.00 0.13 0.00 90 973.0
20210923114004 71 149 4.0 9.0 0.00 0.13 0.00 90 973.1
20210923113503 71 172 1.0 6.0 0.00 0.13 0.00 90 973.2
20210923113005 71 182 0.0 9.0 0.00 0.13 0.00 90 973.1
20210923112503 71 191 4.0 9.0 0.00 0.13 0.00 90 973.1
20210923112005 71 183 1.0 7.0 0.00 0.13 0.00 90 973.2
20210923111504 71 140 1.0 8.0 0.00 0.13 0.00 90 973.2
20210923111005 71 151 2.0 8.0 0.00 0.13 0.00 90 973.2
20210923110504 71 185 3.0 7.0 0.00 0.13 0.00 90 973.2
20210923110006 71 161 2.0 7.0 0.00 0.13 0.00 90 973.2
20210923105503 71 86 0.0 7.0 0.00 0.13 0.00 90 973.2
20210923105005 71 182 3.0 9.0 0.00 0.13 0.00 90 973.2
20210923104503 71 122 2.0 9.0 0.00 0.13 0.00 90 973.2
20210923104005 70 61 3.0 7.0 0.00 0.13 0.00 90 973.2
20210923103503 71 156 2.0 7.0 0.00 0.13 0.00 90 973.2
20210923103005 70 155 0.0 5.0 0.00 0.13 0.00 90 973.2
20210923102504 70 155 1.0 7.0 0.00 0.13 0.00 90 973.2
20210923102004 70 96 1.0 7.0 0.00 0.13 0.00 90 973.2
20210923101504 70 172 1.0 7.0 0.00 0.13 0.00 90 973.2
20210923101004 71 106 0.0 3.0 0.00 0.13 0.00 90 973.2
20210923100503 70 106 0.0 3.0 0.00 0.13 0.00 90 973.2
20210923100005 71 167 0.0 0.0 0.00 0.13 0.00 90 973.2
20210923095504 71 167 0.0 0.0 0.00 0.13 0.00 90 973.2
20210923095004 71 167 0.0 0.0 0.00 0.13 0.00 90 973.2
20210923094503 71 167 0.0 0.0 0.00 0.13 0.00 90 973.2
20210923094005 71 167 0.0 7.0 0.00 0.13 0.00 90 973.2
20210923093503 71 167 2.0 7.0 0.00 0.13 0.00 90 973.2
20210923093011 71 187 1.0 6.0 0.00 0.13 0.00 90 973.3
20210923092503 71 214 0.0 5.0 0.00 0.14 0.00 90 973.3
20210923092009 71 220 0.0 5.0 0.00 0.15 0.00 90 973.3
20210923091005 71 220 1.0 8.0 0.00 0.17 0.00 90 973.4
20210923090503 71 198 3.0 10.0 0.00 0.17 0.00 90 973.3
20210923090005 71 215 1.0 10.0 0.00 0.17 0.00 90 973.4
20210923085503 71 190 3.0 10.0 0.00 0.18 0.00 90 973.3
20210923085005 71 179 1.0 9.0 0.00 0.18 0.00 90 973.3
20210923084504 71 175 5.0 9.0 0.00 0.18 0.00 90 973.3
20210923084005 70 165 2.0 8.0 0.00 0.18 0.00 90 973.4
20210923083503 70 170 3.0 7.0 0.00 0.18 0.00 90 973.4
20210923083005 70 234 0.0 0.0 0.00 0.19 0.00 90 973.4
20210923082503 70 234 0.0 0.0 0.00 0.19 0.00 90 973.4
20210923082005 70 234 0.0 0.0 0.00 0.19 0.00 90 973.4
20210923081504 70 234 0.0 0.0 0.00 0.19 0.00 90 973.3
20210923081005 69 234 0.0 0.0 0.00 0.19 0.00 90 973.4
20210923080504 69 234 0.0 0.0 0.00 0.19 0.00 90 973.5
20210923080007 70 234 0.0 0.0 0.00 0.19 0.00 90 973.5
20210923075503 70 234 0.0 0.0 0.00 0.20 0.00 90 973.5
20210923075009 69 234 0.0 0.0 0.00 0.20 0.00 90 973.5
20210923074504 69 234 0.0 0.0 0.00 0.20 0.00 90 973.5
20210923074005 70 234 0.0 0.0 0.00 0.20 0.00 90 973.5
20210923073503 70 234 0.0 0.0 0.00 0.20 0.00 90 973.5
20210923073005 70 234 0.0 0.0 0.00 0.20 0.00 90 973.6
20210923072513 70 234 0.0 0.0 0.00 0.20 0.00 90 973.6